• In Uzbekistan
  • List of Countries
  • For 7 days
  • Water Temperature
  • Satellite Maps
  • Weather Map
  • Weather Widgets
  • user-avatar
    Login

    Hourly Weather Hulskie

    Today, 22 September, Saturday

    Time Temperature Precipitation Wind Pressure Humidity
    00:00 +16°C° 0 mm 3 mps 712 mmHg 71%
    01:00 +16°C° 0 mm 3 mps 712 mmHg 69%
    02:00 +16°C° 0 mm 3 mps 712 mmHg 67%
    03:00 +14°C° 0 mm 3 mps 712 mmHg 65%
    04:00 +14°C° 0 mm 3 mps 712 mmHg 64%
    05:00 +14°C° 0 mm 3 mps 712 mmHg 62%
    06:00 +14°C° 0.1 mm 3 mps 713 mmHg 66%
    07:00 +14°C° 0.1 mm 3 mps 713 mmHg 70%
    08:00 +14°C° 0.1 mm 3 mps 714 mmHg 74%
    09:00 +13°C° 0.3 mm 3 mps 714 mmHg 76%
    10:00 +13°C° 0.3 mm 3 mps 715 mmHg 78%
    11:00 +12°C° 0.3 mm 3 mps 715 mmHg 80%
    12:00 +13°C° 1 mm 2 mps 715 mmHg 83%
    13:00 +12°C° 1 mm 2 mps 715 mmHg 86%
    14:00 +10°C° 1 mm 2 mps 715 mmHg 90%
    15:00 +11°C° 0.8 mm 1 mps 715 mmHg 90%
    16:00 +11°C° 0.8 mm 1 mps 715 mmHg 90%
    17:00 +11°C° 0.8 mm 1 mps 715 mmHg 90%
    18:00 +10°C° 0 mm 1 mps 715 mmHg 91%
    19:00 +9°C° 0 mm 1 mps 715 mmHg 92%
    20:00 +8°C° 0 mm 1 mps 715 mmHg 93%
    21:00 +8°C° 0 mm 1 mps 716 mmHg 91%
    22:00 +8°C° 0 mm 1 mps 716 mmHg 90%
    23:00 +8°C° 0 mm 1 mps 716 mmHg 88%

    Tomorrow, 23 September, Sunday

    Time Temperature Precipitation Wind Pressure Humidity
    00:00 +8°C° 0 mm 1 mps 716 mmHg 89%
    01:00 +8°C° 0 mm 1 mps 716 mmHg 90%
    02:00 +8°C° 0 mm 1 mps 716 mmHg 90%
    03:00 +7°C° 0 mm 1 mps 715 mmHg 91%
    04:00 +6°C° 0 mm 2 mps 715 mmHg 91%
    05:00 +6°C° 0 mm 2 mps 715 mmHg 92%
    06:00 +7°C° 0 mm 2 mps 715 mmHg 91%
    07:00 +8°C° 0 mm 2 mps 715 mmHg 90%
    08:00 +8°C° 0 mm 2 mps 715 mmHg 88%
    09:00 +9°C° 0 mm 3 mps 715 mmHg 84%
    10:00 +10°C° 0 mm 3 mps 715 mmHg 79%
    11:00 +12°C° 0 mm 4 mps 715 mmHg 74%
    12:00 +12°C° 0 mm 4 mps 715 mmHg 72%
    13:00 +13°C° 0 mm 4 mps 715 mmHg 70%
    14:00 +13°C° 0 mm 5 mps 715 mmHg 68%
    15:00 +13°C° 0 mm 4 mps 714 mmHg 68%
    16:00 +13°C° 0 mm 4 mps 714 mmHg 69%
    17:00 +13°C° 0 mm 4 mps 713 mmHg 70%
    18:00 +13°C° 0 mm 4 mps 713 mmHg 71%
    19:00 +12°C° 0 mm 4 mps 712 mmHg 72%
    20:00 +11°C° 0 mm 4 mps 712 mmHg 73%
    21:00 +10°C° 0 mm 5 mps 711 mmHg 70%
    22:00 +12°C° 0 mm 5 mps 710 mmHg 67%
    23:00 +11°C° 0 mm 6 mps 710 mmHg 63%

    Day after tomorrow, 24 September, Monday

    Time Temperature Precipitation Wind Pressure Humidity
    00:00 +11°C° 0.1 mm 6 mps 708 mmHg 67%
    01:00 +11°C° 0.1 mm 6 mps 707 mmHg 71%
    02:00 +11°C° 0.1 mm 7 mps 706 mmHg 75%
    03:00 +12°C° 0.3 mm 7 mps 705 mmHg 75%
    04:00 +12°C° 0.3 mm 8 mps 704 mmHg 75%
    05:00 +13°C° 0.3 mm 8 mps 703 mmHg 75%
    06:00 +12°C° 0.8 mm 8 mps 703 mmHg 79%
    07:00 +11°C° 0.8 mm 8 mps 704 mmHg 82%
    08:00 +11°C° 0.8 mm 7 mps 704 mmHg 86%
    09:00 +9°C° 0.1 mm 7 mps 706 mmHg 84%
    10:00 +8°C° 0.1 mm 7 mps 708 mmHg 83%
    11:00 +7°C° 0.1 mm 6 mps 710 mmHg 81%
    12:00 +6°C° 0.2 mm 7 mps 711 mmHg 80%
    13:00 +8°C° 0.2 mm 7 mps 712 mmHg 78%
    14:00 +8°C° 0.2 mm 7 mps 713 mmHg 76%
    15:00 +8°C° 0.1 mm 7 mps 713 mmHg 72%
    16:00 +8°C° 0.1 mm 7 mps 714 mmHg 67%
    17:00 +8°C° 0.1 mm 6 mps 714 mmHg 63%
    18:00 +7°C° 0 mm 6 mps 715 mmHg 65%
    19:00 +6°C° 0 mm 5 mps 715 mmHg 67%
    20:00 +4°C° 0 mm 4 mps 715 mmHg 69%
    21:00 +4°C° 0 mm 4 mps 716 mmHg 71%
    22:00 +4°C° 0 mm 4 mps 716 mmHg 73%
    23:00 +3°C° 0 mm 5 mps 717 mmHg 75%

    25 September, Tuesday

    Time Temperature Precipitation Wind Pressure Humidity
    00:00 +4°C° 0 mm 4 mps 717 mmHg 77%
    01:00 +3°C° 0 mm 4 mps 718 mmHg 79%
    02:00 +3°C° 0 mm 4 mps 718 mmHg 81%
    03:00 +3°C° 0 mm 3 mps 718 mmHg 82%
    04:00 +2°C° 0 mm 3 mps 719 mmHg 84%
    05:00 +2°C° 0 mm 3 mps 719 mmHg 86%
    06:00 +2°C° 0 mm 3 mps 720 mmHg 83%
    07:00 +3°C° 0 mm 4 mps 720 mmHg 80%
    08:00 +3°C° 0 mm 4 mps 721 mmHg 77%
    09:00 +5°C° 0.1 mm 5 mps 721 mmHg 70%
    10:00 +6°C° 0.1 mm 5 mps 722 mmHg 63%
    11:00 +7°C° 0.1 mm 6 mps 722 mmHg 56%
    12:00 +8°C° 0.1 mm 6 mps 722 mmHg 53%
    13:00 +8°C° 0.1 mm 6 mps 723 mmHg 50%
    14:00 +9°C° 0.1 mm 6 mps 723 mmHg 48%
    15:00 +8°C° 0.1 mm 5 mps 723 mmHg 51%
    16:00 +8°C° 0.1 mm 5 mps 723 mmHg 54%
    17:00 +7°C° 0.1 mm 4 mps 723 mmHg 57%
    18:00 +5°C° 0 mm 3 mps 723 mmHg 62%
    19:00 +5°C° 0 mm 2 mps 723 mmHg 67%
    20:00 +3°C° 0 mm 2 mps 724 mmHg 72%
    21:00 +4°C° 0 mm 1 mps 724 mmHg 72%
    22:00 +3°C° 0 mm 1 mps 724 mmHg 73%
    23:00 +3°C° 0 mm 1 mps 724 mmHg 74%

    26 September, Wednesday

    Time Temperature Precipitation Wind Pressure Humidity
    00:00 +2°C° 0 mm 2 mps 723 mmHg 73%
    01:00 +2°C° 0 mm 2 mps 723 mmHg 72%
    02:00 +2°C° 0 mm 2 mps 723 mmHg 71%
    03:00 +2°C° 0 mm 2 mps 723 mmHg 71%
    04:00 +2°C° 0 mm 2 mps 723 mmHg 71%
    05:00 +1°C° 0 mm 3 mps 723 mmHg 71%
    06:00 +2°C° 0 mm 3 mps 722 mmHg 68%
    07:00 +3°C° 0 mm 4 mps 722 mmHg 65%
    08:00 +4°C° 0 mm 4 mps 722 mmHg 62%
    09:00 +5°C° 0.1 mm 5 mps 722 mmHg 61%
    10:00 +6°C° 0.1 mm 5 mps 722 mmHg 61%
    11:00 +8°C° 0.1 mm 5 mps 722 mmHg 60%
    12:00 +7°C° 0.4 mm 5 mps 722 mmHg 67%
    13:00 +7°C° 0.4 mm 4 mps 721 mmHg 73%
    14:00 +7°C° 0.4 mm 4 mps 721 mmHg 80%
    15:00 +7°C° 0.1 mm 4 mps 721 mmHg 81%
    16:00 +7°C° 0.1 mm 4 mps 721 mmHg 82%
    17:00 +8°C° 0.1 mm 3 mps 721 mmHg 84%
    18:00 +7°C° 0 mm 3 mps 721 mmHg 87%
    19:00 +7°C° 0 mm 2 mps 722 mmHg 90%
    20:00 +7°C° 0 mm 1 mps 722 mmHg 94%
    21:00 +7°C° 0 mm 1 mps 722 mmHg 94%
    22:00 +6°C° 0 mm 1 mps 722 mmHg 94%
    23:00 +6°C° 0 mm 1 mps 723 mmHg 94%

    27 September, Thursday

    Time Temperature Precipitation Wind Pressure Humidity
    00:00 +6°C° 0 mm 1 mps 722 mmHg 94%
    01:00 +6°C° 0 mm 1 mps 722 mmHg 94%
    02:00 +7°C° 0 mm 1 mps 722 mmHg 94%
    03:00 +6°C° 0 mm 1 mps 722 mmHg 95%
    04:00 +6°C° 0 mm 1 mps 722 mmHg 95%
    05:00 +5°C° 0 mm 1 mps 722 mmHg 95%
    06:00 +6°C° 0 mm 1 mps 722 mmHg 93%
    07:00 +7°C° 0 mm 1 mps 722 mmHg 92%
    08:00 +6°C° 0 mm 2 mps 722 mmHg 90%
    09:00 +8°C° 0 mm 2 mps 722 mmHg 83%
    10:00 +10°C° 0 mm 3 mps 722 mmHg 75%
    11:00 +12°C° 0 mm 3 mps 722 mmHg 67%
    12:00 +13°C° 0 mm 3 mps 721 mmHg 63%
    13:00 +13°C° 0 mm 4 mps 721 mmHg 58%
    14:00 +14°C° 0 mm 4 mps 720 mmHg 53%
    15:00 +14°C° 0 mm 4 mps 719 mmHg 56%
    16:00 +13°C° 0 mm 4 mps 719 mmHg 58%
    17:00 +13°C° 0 mm 4 mps 718 mmHg 61%
    18:00 +12°C° 0 mm 4 mps 718 mmHg 65%
    19:00 +10°C° 0 mm 4 mps 718 mmHg 69%
    20:00 +8°C° 0 mm 4 mps 718 mmHg 74%
    21:00 +8°C° 0 mm 4 mps 717 mmHg 74%
    22:00 +7°C° 0 mm 4 mps 717 mmHg 74%
    23:00 +7°C° 0 mm 4 mps 717 mmHg 75%
    Show more